Eagle, AK

11:43 AM AKST on January 19, 2018 (GMT -0900)
Eagle

Weather History for PAEG - May, 2013

Change the Weather History Date:

Friday, May 17, 2013

  Actual Average (PABN) Record (PABN)
Temperature  
Mean Temperature 45 °F -  
Max Temperature 63 °F 47 °F 64 °F (2014)
Min Temperature 28 °F 37 °F 33 °F (2013)
Degree Days  
Heating Degree Days 20    
Moisture  
Dew Point 26 °F    
Average Humidity 44    
Maximum Humidity 85    
Minimum Humidity 25    
Precipitation  
Precipitation 0.00 in - - ()
Sea Level Pressure  
Sea Level Pressure 29.39 in    
Wind  
Wind Speed 5 mph (SE)    
Max Wind Speed 13 mph    
Max Gust Speed 28 mph    
Visibility 10 miles    
Events      
Averages and records for this station are not official NWS values.
T = Trace of Precipitation, MM = Missing Value Source: NWS Daily Summary

Daily Weather History Graph

Daily Weather History Graph

Search for Another Location

Airport or City:

Trip Planner

Search our weather history database for the weather conditions in past years. The results will help you decide how hot, cold, wet, or windy it might be!

Date:

Astronomy

May. 17, 2013 Rise Set
Actual Time 3:54 AM AKDT 10:50 PM AKDT
Civil Twilight 1:53 AM AKDT 12:48 AM AKDT
Nautical Twilight Sun does not rise Sun does not rise
Astronomical Twilight Sun does not rise Sun does not rise
Moon 11:59 AM AKDT (5/17) 2:29 AM AKDT (5/17)
Length of Visible Light 22h 55m
Length of Day
18h 56m
Waxing Crescent, 46% of the Moon is Illuminated
May 17
Waxing Crescent
May 17
First Quarter
May 24
Full
May 31
Last Quarter
Jun 8
New

Hourly Weather History & Observations

Time (AKDT) Temp. Windchill Dew Point Humidity Pressure Visibility Wind Dir Wind Speed Gust Speed Precip Events Conditions
12:53 AM 44.1 °F 42.5 °F 32.0 °F 63% 29.47 in 10.0 mi NE 3.5 mph - N/A   Mostly Cloudy
1:53 AM 33.1 °F 27.7 °F 27.0 °F 78% 29.46 in 10.0 mi South 5.8 mph - N/A   Clear
2:53 AM 30.0 °F - 26.1 °F 85% 29.46 in 10.0 mi Calm Calm - N/A   Clear
3:53 AM 28.9 °F - 25.0 °F 85% 29.45 in 10.0 mi Calm Calm - N/A   Clear
4:53 AM 33.1 °F - 28.0 °F 82% 29.44 in 10.0 mi Calm Calm - N/A   Clear
5:53 AM 46.9 °F - 24.1 °F 41% 29.43 in 10.0 mi SE 6.9 mph 20.7 mph N/A   Overcast
6:53 AM 46.9 °F - 24.1 °F 41% 29.43 in 10.0 mi ESE 6.9 mph - N/A   Overcast
7:53 AM 48.0 °F - 24.1 °F 39% 29.43 in 10.0 mi SE 8.1 mph - N/A   Overcast
8:53 AM 50.0 °F - 24.1 °F 36% 29.42 in 10.0 mi Variable 6.9 mph - N/A   Scattered Clouds
9:53 AM 51.1 °F - 24.1 °F 35% 29.41 in 10.0 mi SE 10.4 mph 23.0 mph N/A   Clear
10:53 AM 53.1 °F - 25.0 °F 34% 29.40 in 10.0 mi SSE 11.5 mph 27.6 mph N/A   Clear
11:53 AM 55.0 °F - 26.1 °F 33% 29.39 in 10.0 mi SE 10.4 mph 23.0 mph N/A   Clear
12:53 PM 55.9 °F - 26.1 °F 32% 29.38 in 10.0 mi SSE 6.9 mph 20.7 mph N/A   Clear
1:53 PM 57.0 °F - 26.1 °F 30% 29.39 in 10.0 mi SSE 9.2 mph 21.9 mph N/A   Clear
2:53 PM 60.1 °F - 27.0 °F 28% 29.38 in 10.0 mi ESE 12.7 mph 19.6 mph N/A   Clear
3:53 PM 60.1 °F - 26.1 °F 27% 29.38 in 10.0 mi SSE 12.7 mph 20.7 mph N/A   Clear
4:53 PM 60.1 °F - 26.1 °F 27% 29.37 in 10.0 mi SSE 10.4 mph 19.6 mph N/A   Clear
5:53 PM 62.1 °F - 26.1 °F 25% 29.35 in 10.0 mi SSE 11.5 mph 21.9 mph N/A   Partly Cloudy
6:53 PM 60.1 °F - 25.0 °F 26% 29.34 in 10.0 mi Variable 4.6 mph - N/A   Clear
7:53 PM 59.0 °F - 25.0 °F 27% 29.32 in 10.0 mi Calm Calm - N/A   Clear
8:53 PM 55.9 °F - 28.9 °F 36% 29.32 in 10.0 mi Calm Calm - N/A   Clear
9:53 PM 50.0 °F - 28.9 °F 44% 29.33 in 10.0 mi Calm Calm - N/A   Overcast
10:53 PM 43.0 °F - 28.0 °F 56% 29.34 in 10.0 mi Calm Calm - N/A   Clear
11:53 PM 42.1 °F - 27.0 °F 55% 29.34 in 10.0 mi Calm Calm - N/A   Overcast